Погода в Ревали

Польша     54°04′43″N   15°00′41″E
темп.,
°C
ветер,
м/с
пор.,
м/с
влажн.,
%
обл.,
%
осадки,
мм/ч
давл.,
гПа
погр.,
м
27 февраля, сб
сб2701:00+4зсз814908 0.0 1029412
04:00+3сз6119541 0.0 1029338
07:00+3зсз599443 0.0 1031227
10:00+5сз688311 0.0 1033361
13:00+6сз57715 0.0 1035346
16:00+5сз57740 0.0 1035297
19:00+3зсз46880 0.0 1036129
22:00+3з479373 0.0 1035184
28 февраля, вс
вс2801:00+4зюз589387 0.0 1035211
04:00+3з5109334 0.0 1034244
07:00+2з599625 0.0 1033245
10:00+4зсз689284 0.0 1033374
13:00+6зсз588583 0.0 1033407
16:00+5сз478512 0.0 1033324
19:00+4зсз34926 0.0 103466
22:00+3зсз23920 0.0 103431
1 марта, пн
пн101:00+3зюз33930 0.0 103530
04:00+2зюз33930 0.0 103346
07:00+2юз34940 0.0 103465
10:00+5зюз46840 0.0 1034259
13:00+7з46740 0.0 1034376
16:00+8з46710 0.0 1033350
19:00+5зсз44840 0.0 103361
22:00+4з45900 0.0 103396
2 марта, вт
вт201:00+4з44910 0.0 103365
04:00+3з44910 0.0 103272
07:00+3з34910 0.0 103267
10:00+6з46790 0.0 1033242
13:00+8зсз45690 0.0 1033323
16:00+8зсз34700 0.0 1032223
19:00+5зсз22780 0.0 103122
22:00+4сз11810 0.0 103222
3 марта, ср
ср301:00+4юз11820 0.0 103122
04:00+3ю12830 0.0 103022
07:00+3ю23850 0.0 102922
10:00+7ю34721 0.0 1029198
13:00+10ююз23639 0.0 1028452
16:00+10з236742 0.0 1025307
19:00+7ююз238021 0.0 102423
22:00+6з348828 0.0 102349